Location: Jastrz?bniki
(50.3667°N, 20.3833°E)
Time: 11:07:58
(UTC+00:00)

SL-14 R/B - Pass Details

Date: 05 August 2024
Orbit: 505 x 539 km, 82.4° (Epoch: 09 September)

Event Time Altitude Azimuth Distance (km) Brightness Sun altitude
Rises 00:17:16 0° 349° (N) 2,695 7.8 -19.7°
Reaches altitude 10° 00:19:27 10° 350° (N) 1,794 6.7 -19.6°
Maximum altitude 00:23:23 89° 72° (ENE) 535 3.1 -19.3°
Enters shadow 00:24:23 49° 169° (S) 685 3.4 -19.2°
